Time,TemperatureF,DewpointF,PressureIn,WindDirection,WindDirectionDegrees,WindSpeedMPH,WindSpeedGustMPH,Humidity,HourlyPrecipIn,Conditions,Clouds,dailyrainin,SoftwareType,DateUTC
2013-01-07 00:00:00,40.0,30.6,30.19,SW,225,0.0,3.0,69,0.00,,,0.00,WUHU216DAVISVP2,2013-01-07 05:00:00,
2013-01-07 00:30:00,39.5,30.9,30.20,SW,225,0.0,2.0,71,0.00,,,0.00,WUHU216DAVISVP2,2013-01-07 05:30:00,
2013-01-07 01:00:00,39.4,30.8,30.21,SW,225,0.0,3.0,71,0.00,,,0.00,WUHU216DAVISVP2,2013-01-07 06:00:00,
2013-01-07 01:30:00,38.7,30.4,30.21,SW,225,0.0,2.0,72,0.00,,,0.00,WUHU216DAVISVP2,2013-01-07 06:30:00,
2013-01-07 01:43:00,37.3,30.5,30.21,SSW,204,0.0,1.0,76,0.00,,,0.00,WUHU216DAVISVP2,2013-01-07 06:43:00,
2013-01-07 01:44:00,37.4,30.6,30.21,SSW,204,0.0,1.0,76,0.00,,,0.00,WUHU216DAVISVP2,2013-01-07 06:44:00,
2013-01-07 01:45:00,37.5,30.7,30.21,SSW,204,0.0,1.0,76,0.00,,,0.00,WUHU216DAVISVP2,2013-01-07 06:45:00,
2013-01-07 01:46:00,37.5,30.7,30.21,SSW,204,0.0,1.0,76,0.00,,,0.00,WUHU216DAVISVP2,2013-01-07 06:46:00,
2013-01-07 01:47:00,37.6,30.8,30.21,SSW,204,0.0,1.0,76,0.00,,,0.00,WUHU216DAVISVP2,2013-01-07 06:47:00,
2013-01-07 01:48:00,37.7,30.5,30.21,SSW,204,0.0,1.0,75,0.00,,,0.00,WUHU216DAVISVP2,2013-01-07 06:48:00,
2013-01-07 01:49:00,37.7,30.5,30.21,SSW,204,0.0,1.0,75,0.00,,,0.00,WUHU216DAVISVP2,2013-01-07 06:49:00,
2013-01-07 01:50:00,37.7,30.5,30.21,SSW,204,0.0,1.0,75,0.00,,,0.00,WUHU216DAVISVP2,2013-01-07 06:50:00,
2013-01-07 01:51:00,37.8,30.6,30.21,SSW,204,0.0,1.0,75,0.00,,,0.00,WUHU216DAVISVP2,2013-01-07 06:51:00,
2013-01-07 01:52:00,37.8,30.6,30.21,SSW,204,0.0,1.0,75,0.00,,,0.00,WUHU216DAVISVP2,2013-01-07 06:52:00,
2013-01-07 01:53:00,37.8,30.6,30.21,SSW,205,0.0,1.0,75,0.00,,,0.00,WUHU216DAVISVP2,2013-01-07 06:53:00,
2013-01-07 01:54:00,37.9,30.7,30.21,SSW,204,0.0,1.0,75,0.00,,,0.00,WUHU216DAVISVP2,2013-01-07 06:54:00,
2013-01-07 01:55:00,37.9,30.7,30.21,SSW,204,0.0,1.0,75,0.00,,,0.00,WUHU216DAVISVP2,2013-01-07 06:55:00,
2013-01-07 01:56:00,38.0,30.8,30.21,SSW,204,0.0,0.0,75,0.00,,,0.00,WUHU216DAVISVP2,2013-01-07 06:56:00,
2013-01-07 01:57:00,38.1,30.6,30.21,SSW,204,0.0,0.0,74,0.00,,,0.00,WUHU216DAVISVP2,2013-01-07 06:57:00,
2013-01-07 01:58:00,38.2,30.7,30.22,SSW,205,0.0,0.0,74,0.00,,,0.00,WUHU216DAVISVP2,2013-01-07 06:58:00,
2013-01-07 01:59:00,38.3,30.8,30.22,SSW,205,0.0,0.0,74,0.00,,,0.00,WUHU216DAVISVP2,2013-01-07 06:59:00,
2013-01-07 02:00:00,38.3,30.8,30.22,SSW,204,0.0,0.0,74,0.00,,,0.00,WUHU216DAVISVP2,2013-01-07 07:00:00,
2013-01-07 02:01:00,38.3,30.8,30.22,SSW,204,0.0,0.0,74,0.00,,,0.00,WUHU216DAVISVP2,2013-01-07 07:01:00,
2013-01-07 02:02:00,38.2,30.7,30.22,SSW,204,0.0,0.0,74,0.00,,,0.00,WUHU216DAVISVP2,2013-01-07 07:02:00,
2013-01-07 02:03:00,38.1,30.6,30.22,SSW,204,0.0,0.0,74,0.00,,,0.00,WUHU216DAVISVP2,2013-01-07 07:03:00,
2013-01-07 02:04:00,38.0,30.5,30.22,SSW,204,0.0,0.0,74,0.00,,,0.00,WUHU216DAVISVP2,2013-01-07 07:04:00,
2013-01-07 02:05:00,37.9,30.4,30.22,SSW,204,0.0,0.0,74,0.00,,,0.00,WUHU216DAVISVP2,2013-01-07 07:05:00,
2013-01-07 02:06:00,37.8,30.3,30.22,SSW,205,0.0,0.0,74,0.00,,,0.00,WUHU216DAVISVP2,2013-01-07 07:06:00,
2013-01-07 02:07:00,37.8,30.3,30.22,SSW,204,0.0,0.0,74,0.00,,,0.00,WUHU216DAVISVP2,2013-01-07 07:07:00,
2013-01-07 02:08:00,37.9,30.4,30.22,SSW,204,0.0,0.0,74,0.00,,,0.00,WUHU216DAVISVP2,2013-01-07 07:08:00,
2013-01-07 02:09:00,37.9,30.4,30.22,SSW,204,0.0,0.0,74,0.00,,,0.00,WUHU216DAVISVP2,2013-01-07 07:09:00,
2013-01-07 02:10:00,37.9,30.4,30.22,SSW,204,0.0,0.0,74,0.00,,,0.00,WUHU216DAVISVP2,2013-01-07 07:10:00,
2013-01-07 02:11:00,37.9,30.4,30.22,SSW,204,0.0,0.0,74,0.00,,,0.00,WUHU216DAVISVP2,2013-01-07 07:11:00,
2013-01-07 02:12:00,38.0,30.5,30.22,SSW,204,0.0,0.0,74,0.00,,,0.00,WUHU216DAVISVP2,2013-01-07 07:12:00,
2013-01-07 02:13:00,38.0,30.5,30.22,SSW,204,0.0,0.0,74,0.00,,,0.00,WUHU216DAVISVP2,2013-01-07 07:13:00,
2013-01-07 02:14:00,38.0,30.4,30.22,SSW,204,0.0,0.0,74,0.00,,,0.00,WUHU216DAVISVP2,2013-01-07 07:14:00,
2013-01-07 02:15:00,38.1,30.5,30.22,SSW,204,0.0,0.0,74,0.00,,,0.00,WUHU216DAVISVP2,2013-01-07 07:15:00,
2013-01-07 02:16:00,38.2,30.7,30.22,SSW,204,0.0,0.0,74,0.00,,,0.00,WUHU216DAVISVP2,2013-01-07 07:16:00,
2013-01-07 02:17:00,38.2,30.7,30.22,SSW,204,0.0,0.0,74,0.00,,,0.00,WUHU216DAVISVP2,2013-01-07 07:17:00,
2013-01-07 02:18:00,38.3,30.5,30.22,NW,305,1.0,1.0,73,0.00,,,0.00,WUHU216DAVISVP2,2013-01-07 07:18:00,
2013-01-07 02:19:00,38.5,30.7,30.22,WNW,294,0.0,2.0,73,0.00,,,0.00,WUHU216DAVISVP2,2013-01-07 07:19:00,
2013-01-07 02:20:00,38.7,30.9,30.22,WNW,283,0.0,2.0,73,0.00,,,0.00,WUHU216DAVISVP2,2013-01-07 07:20:00,
2013-01-07 02:21:00,38.9,30.7,30.22,West,277,0.0,2.0,72,0.00,,,0.00,WUHU216DAVISVP2,2013-01-07 07:21:00,
2013-01-07 02:22:00,38.9,30.7,30.22,West,280,1.0,2.0,72,0.00,,,0.00,WUHU216DAVISVP2,2013-01-07 07:22:00,
2013-01-07 02:23:00,39.0,30.7,30.22,West,280,2.0,2.0,72,0.00,,,0.00,WUHU216DAVISVP2,2013-01-07 07:23:00,
2013-01-07 02:24:00,39.2,30.6,30.22,West,263,2.0,3.0,71,0.00,,,0.00,WUHU216DAVISVP2,2013-01-07 07:24:00,
2013-01-07 02:25:00,39.2,30.6,30.22,West,276,3.0,3.0,71,0.00,,,0.00,WUHU216DAVISVP2,2013-01-07 07:25:00,
2013-01-07 02:26:00,39.3,30.7,30.22,West,270,3.0,3.0,71,0.00,,,0.00,WUHU216DAVISVP2,2013-01-07 07:26:00,
2013-01-07 02:27:00,39.3,30.7,30.22,West,271,2.0,3.0,71,0.00,,,0.00,WUHU216DAVISVP2,2013-01-07 07:27:00,
2013-01-07 02:28:00,39.3,30.8,30.22,West,274,1.0,3.0,71,0.00,,,0.00,WUHU216DAVISVP2,2013-01-07 07:28:00,
2013-01-07 02:29:00,39.2,30.7,30.22,West,278,1.0,3.0,71,0.00,,,0.00,WUHU216DAVISVP2,2013-01-07 07:29:00,
2013-01-07 02:30:00,39.0,30.5,30.22,West,278,2.0,3.0,71,0.00,,,0.00,WUHU216DAVISVP2,2013-01-07 07:30:00,
2013-01-07 02:31:00,38.9,30.4,30.22,WNW,294,1.0,3.0,71,0.00,,,0.00,WUHU216DAVISVP2,2013-01-07 07:31:00,
2013-01-07 02:32:00,38.9,30.4,30.22,WNW,295,2.0,3.0,71,0.00,,,0.00,WUHU216DAVISVP2,2013-01-07 07:32:00,
2013-01-07 02:33:00,38.9,30.4,30.22,West,278,1.0,3.0,71,0.00,,,0.00,WUHU216DAVISVP2,2013-01-07 07:33:00,
2013-01-07 02:34:00,38.9,30.4,30.22,West,273,1.0,3.0,71,0.00,,,0.00,WUHU216DAVISVP2,2013-01-07 07:34:00,
2013-01-07 02:35:00,39.0,30.5,30.22,West,278,1.0,3.0,71,0.00,,,0.00,WUHU216DAVISVP2,2013-01-07 07:35:00,
2013-01-07 02:36:00,39.1,30.2,30.23,NW,308,0.0,3.0,70,0.00,,,0.00,WUHU216DAVISVP2,2013-01-07 07:36:00,
2013-01-07 02:37:00,39.2,30.3,30.23,NW,322,0.0,3.0,70,0.00,,,0.00,WUHU216DAVISVP2,2013-01-07 07:37:00,
2013-01-07 02:38:00,39.2,30.3,30.23,NW,322,1.0,3.0,70,0.00,,,0.00,WUHU216DAVISVP2,2013-01-07 07:38:00,
2013-01-07 02:39:00,39.1,30.2,30.23,NW,321,1.0,3.0,70,0.00,,,0.00,WUHU216DAVISVP2,2013-01-07 07:39:00,
2013-01-07 02:40:00,39.1,30.1,30.23,NW,322,1.0,3.0,70,0.00,,,0.00,WUHU216DAVISVP2,2013-01-07 07:40:00,
2013-01-07 02:41:00,39.1,30.1,30.23,NW,322,0.0,3.0,70,0.00,,,0.00,WUHU216DAVISVP2,2013-01-07 07:41:00,
2013-01-07 02:42:00,39.0,30.0,30.23,NNW,328,1.0,3.0,70,0.00,,,0.00,WUHU216DAVISVP2,2013-01-07 07:42:00,
2013-01-07 02:43:00,39.1,30.2,30.23,NW,319,1.0,3.0,70,0.00,,,0.00,WUHU216DAVISVP2,2013-01-07 07:43:00,
2013-01-07 02:44:00,39.1,30.2,30.23,NNW,330,1.0,3.0,70,0.00,,,0.00,WUHU216DAVISVP2,2013-01-07 07:44:00,
2013-01-07 02:45:00,39.2,30.3,30.23,NNW,330,3.0,3.0,70,0.00,,,0.00,WUHU216DAVISVP2,2013-01-07 07:45:00,
2013-01-07 02:46:00,39.3,30.4,30.23,WNW,298,1.0,3.0,70,0.00,,,0.00,WUHU216DAVISVP2,2013-01-07 07:46:00,
2013-01-07 02:47:00,39.4,30.2,30.23,WNW,298,0.0,3.0,69,0.00,,,0.00,WUHU216DAVISVP2,2013-01-07 07:47:00,
2013-01-07 02:48:00,39.4,30.2,30.23,NW,304,1.0,3.0,69,0.00,,,0.00,WUHU216DAVISVP2,2013-01-07 07:48:00,
2013-01-07 02:49:00,39.4,30.2,30.23,West,263,1.0,3.0,69,0.00,,,0.00,WUHU216DAVISVP2,2013-01-07 07:49:00,
2013-01-07 02:50:00,39.4,30.2,30.23,West,274,1.0,3.0,69,0.00,,,0.00,WUHU216DAVISVP2,2013-01-07 07:50:00,
2013-01-07 02:51:00,39.4,30.2,30.23,West,260,0.0,3.0,69,0.00,,,0.00,WUHU216DAVISVP2,2013-01-07 07:51:00,
2013-01-07 02:52:00,39.4,30.2,30.23,West,260,0.0,3.0,69,0.00,,,0.00,WUHU216DAVISVP2,2013-01-07 07:52:00,
2013-01-07 02:53:00,39.4,30.2,30.23,West,260,0.0,3.0,69,0.00,,,0.00,WUHU216DAVISVP2,2013-01-07 07:53:00,
2013-01-07 02:54:00,39.4,30.2,30.23,WSW,257,0.0,3.0,69,0.00,,,0.00,WUHU216DAVISVP2,2013-01-07 07:54:00,
2013-01-07 02:55:00,39.3,30.1,30.23,WSW,257,0.0,3.0,69,0.00,,,0.00,WUHU216DAVISVP2,2013-01-07 07:55:00,
2013-01-07 02:56:00,39.3,30.1,30.23,WSW,257,0.0,3.0,69,0.00,,,0.00,WUHU216DAVISVP2,2013-01-07 07:56:00,
2013-01-07 02:57:00,39.2,30.0,30.23,WSW,257,0.0,3.0,69,0.00,,,0.00,WUHU216DAVISVP2,2013-01-07 07:57:00,
2013-01-07 02:58:00,39.2,30.0,30.23,WSW,257,0.0,3.0,69,0.00,,,0.00,WUHU216DAVISVP2,2013-01-07 07:58:00,
2013-01-07 02:59:00,39.1,29.9,30.24,NNE,22,1.0,3.0,69,0.00,,,0.00,WUHU216DAVISVP2,2013-01-07 07:59:00,
2013-01-07 03:00:00,39.1,29.8,30.24,NE,39,3.0,3.0,69,0.00,,,0.00,WUHU216DAVISVP2,2013-01-07 08:00:00,
2013-01-07 03:01:00,39.0,30.1,30.23,NE,39,2.0,3.0,70,0.00,,,0.00,WUHU216DAVISVP2,2013-01-07 08:01:00,
2013-01-07 03:02:00,39.0,30.1,30.24,NE,39,2.0,3.0,70,0.00,,,0.00,WUHU216DAVISVP2,2013-01-07 08:02:00,
2013-01-07 03:03:00,39.1,30.2,30.23,NNE,33,1.0,3.0,70,0.00,,,0.00,WUHU216DAVISVP2,2013-01-07 08:03:00,
2013-01-07 03:04:00,39.1,29.9,30.23,NNE,19,2.0,3.0,69,0.00,,,0.00,WUHU216DAVISVP2,2013-01-07 08:04:00,
2013-01-07 03:05:00,39.0,29.8,30.23,NNE,13,1.0,3.0,69,0.00,,,0.00,WUHU216DAVISVP2,2013-01-07 08:05:00,
2013-01-07 03:06:00,39.1,29.9,30.23,North,354,3.0,3.0,69,0.00,,,0.00,WUHU216DAVISVP2,2013-01-07 08:06:00,
2013-01-07 03:07:00,39.1,29.9,30.23,NNW,328,1.0,3.0,69,0.00,,,0.00,WUHU216DAVISVP2,2013-01-07 08:07:00,
2013-01-07 03:08:00,39.2,29.9,30.23,WNW,297,1.0,3.0,69,0.00,,,0.00,WUHU216DAVISVP2,2013-01-07 08:08:00,
2013-01-07 03:09:00,39.2,29.9,30.23,NNE,15,6.0,6.0,69,0.00,,,0.00,WUHU216DAVISVP2,2013-01-07 08:09:00,
2013-01-07 03:10:00,39.4,29.7,30.23,NW,309,3.0,8.0,68,0.00,,,0.00,WUHU216DAVISVP2,2013-01-07 08:10:00,
2013-01-07 03:11:00,39.5,29.8,30.23,NW,314,3.0,8.0,68,0.00,,,0.00,WUHU216DAVISVP2,2013-01-07 08:11:00,
2013-01-07 03:12:00,39.5,29.8,30.23,North,5,2.0,8.0,68,0.00,,,0.00,WUHU216DAVISVP2,2013-01-07 08:12:00,
2013-01-07 03:13:00,39.6,29.9,30.23,NNW,328,2.0,8.0,68,0.00,,,0.00,WUHU216DAVISVP2,2013-01-07 08:13:00,
2013-01-07 03:14:00,39.6,29.5,30.23,NNE,25,3.0,8.0,67,0.00,,,0.00,WUHU216DAVISVP2,2013-01-07 08:14:00,
2013-01-07 03:15:00,39.6,29.5,30.23,NNW,333,1.0,8.0,67,0.00,,,0.00,WUHU216DAVISVP2,2013-01-07 08:15:00,
2013-01-07 03:16:00,39.6,29.5,30.23,NNW,332,1.0,8.0,67,0.00,,,0.00,WUHU216DAVISVP2,2013-01-07 08:16:00,
2013-01-07 03:17:00,39.6,29.6,30.23,NW,321,2.0,8.0,67,0.00,,,0.00,WUHU216DAVISVP2,2013-01-07 08:17:00,
2013-01-07 03:18:00,39.5,29.5,30.23,NNW,338,3.0,8.0,67,0.00,,,0.00,WUHU216DAVISVP2,2013-01-07 08:18:00,
2013-01-07 03:19:00,39.4,29.4,30.23,NW,326,1.0,8.0,67,0.00,,,0.00,WUHU216DAVISVP2,2013-01-07 08:19:00,
2013-01-07 03:20:00,39.4,29.4,30.24,NW,322,3.0,8.0,67,0.00,,,0.00,WUHU216DAVISVP2,2013-01-07 08:20:00,
2013-01-07 03:21:00,39.4,29.4,30.24,NNW,342,1.0,8.0,67,0.00,,,0.00,WUHU216DAVISVP2,2013-01-07 08:21:00,
2013-01-07 03:22:00,39.4,29.4,30.23,NW,311,3.0,8.0,67,0.00,,,0.00,WUHU216DAVISVP2,2013-01-07 08:22:00,
2013-01-07 03:23:00,39.3,29.3,30.23,NW,319,3.0,8.0,67,0.00,,,0.00,WUHU216DAVISVP2,2013-01-07 08:23:00,
2013-01-07 03:24:00,39.4,29.4,30.23,NW,315,1.0,8.0,67,0.00,,,0.00,WUHU216DAVISVP2,2013-01-07 08:24:00,
2013-01-07 03:25:00,39.4,29.4,30.23,NW,322,1.0,8.0,67,0.00,,,0.00,WUHU216DAVISVP2,2013-01-07 08:25:00,
2013-01-07 03:26:00,39.3,29.3,30.24,North,356,3.0,8.0,67,0.00,,,0.00,WUHU216DAVISVP2,2013-01-07 08:26:00,
2013-01-07 03:27:00,39.3,29.3,30.24,North,359,2.0,8.0,67,0.00,,,0.00,WUHU216DAVISVP2,2013-01-07 08:27:00,
2013-01-07 03:28:00,39.3,29.3,30.24,NNE,32,2.0,8.0,67,0.00,,,0.00,WUHU216DAVISVP2,2013-01-07 08:28:00,
2013-01-07 03:29:00,39.3,29.3,30.24,NNE,25,4.0,6.0,67,0.00,,,0.00,WUHU216DAVISVP2,2013-01-07 08:29:00,
2013-01-07 03:30:00,39.4,29.4,30.24,NNW,332,1.0,6.0,67,0.00,,,0.00,WUHU216DAVISVP2,2013-01-07 08:30:00,
2013-01-07 03:31:00,39.4,29.4,30.24,NNW,330,1.0,6.0,67,0.00,,,0.00,WUHU216DAVISVP2,2013-01-07 08:31:00,
2013-01-07 03:32:00,39.4,29.4,30.24,North,355,2.0,6.0,67,0.00,,,0.00,WUHU216DAVISVP2,2013-01-07 08:32:00,
2013-01-07 03:33:00,39.4,29.4,30.24,North,354,3.0,5.0,67,0.00,,,0.00,WUHU216DAVISVP2,2013-01-07 08:33:00,
2013-01-07 03:34:00,39.5,29.5,30.24,NE,49,3.0,5.0,67,0.00,,,0.00,WUHU216DAVISVP2,2013-01-07 08:34:00,
2013-01-07 03:35:00,39.4,29.1,30.24,NW,304,2.0,5.0,66,0.00,,,0.00,WUHU216DAVISVP2,2013-01-07 08:35:00,
2013-01-07 03:36:00,39.4,29.1,30.24,WNW,294,3.0,5.0,66,0.00,,,0.00,WUHU216DAVISVP2,2013-01-07 08:36:00,
2013-01-07 03:37:00,39.4,29.1,30.24,NNW,334,3.0,4.0,66,0.00,,,0.00,WUHU216DAVISVP2,2013-01-07 08:37:00,
2013-01-07 03:38:00,39.4,29.1,30.24,NW,311,3.0,5.0,66,0.00,,,0.00,WUHU216DAVISVP2,2013-01-07 08:38:00,
2013-01-07 03:39:00,39.4,29.1,30.24,NNW,332,3.0,6.0,66,0.00,,,0.00,WUHU216DAVISVP2,2013-01-07 08:39:00,
2013-01-07 03:40:00,39.3,29.0,30.24,NW,326,3.0,6.0,66,0.00,,,0.00,WUHU216DAVISVP2,2013-01-07 08:40:00,
2013-01-07 03:41:00,39.4,29.1,30.24,NNW,335,2.0,6.0,66,0.00,,,0.00,WUHU216DAVISVP2,2013-01-07 08:41:00,
2013-01-07 03:42:00,39.3,29.0,30.24,NNW,344,1.0,6.0,66,0.00,,,0.00,WUHU216DAVISVP2,2013-01-07 08:42:00,
2013-01-07 03:43:00,39.3,29.0,30.24,NNE,18,2.0,6.0,66,0.00,,,0.00,WUHU216DAVISVP2,2013-01-07 08:43:00,
2013-01-07 03:44:00,39.3,28.9,30.24,NNE,20,3.0,6.0,66,0.00,,,0.00,WUHU216DAVISVP2,2013-01-07 08:44:00,
2013-01-07 03:45:00,39.3,28.9,30.24,NW,326,2.0,6.0,66,0.00,,,0.00,WUHU216DAVISVP2,2013-01-07 08:45:00,
2013-01-07 03:46:00,39.4,29.1,30.25,NNW,339,0.0,6.0,66,0.00,,,0.00,WUHU216DAVISVP2,2013-01-07 08:46:00,
2013-01-07 03:47:00,39.4,29.1,30.25,WNW,291,2.0,6.0,66,0.00,,,0.00,WUHU216DAVISVP2,2013-01-07 08:47:00,
2013-01-07 03:48:00,39.4,29.1,30.25,WNW,290,0.0,6.0,66,0.00,,,0.00,WUHU216DAVISVP2,2013-01-07 08:48:00,
2013-01-07 03:49:00,39.4,29.1,30.25,NW,305,2.0,6.0,66,0.00,,,0.00,WUHU216DAVISVP2,2013-01-07 08:49:00,
2013-01-07 03:50:00,39.4,29.1,30.25,NW,315,2.0,6.0,66,0.00,,,0.00,WUHU216DAVISVP2,2013-01-07 08:50:00,
2013-01-07 03:51:00,39.4,29.1,30.25,WNW,293,3.0,6.0,66,0.00,,,0.00,WUHU216DAVISVP2,2013-01-07 08:51:00,
2013-01-07 03:52:00,39.3,29.0,30.25,WNW,292,1.0,6.0,66,0.00,,,0.00,WUHU216DAVISVP2,2013-01-07 08:52:00,
2013-01-07 03:53:00,39.3,29.0,30.25,NW,311,2.0,6.0,66,0.00,,,0.00,WUHU216DAVISVP2,2013-01-07 08:53:00,
2013-01-07 03:54:00,39.3,29.0,30.25,NNW,342,2.0,6.0,66,0.00,,,0.00,WUHU216DAVISVP2,2013-01-07 08:54:00,
2013-01-07 03:55:00,39.3,29.0,30.25,NW,324,1.0,6.0,66,0.00,,,0.00,WUHU216DAVISVP2,2013-01-07 08:55:00,
2013-01-07 03:56:00,39.2,28.8,30.25,West,277,1.0,6.0,66,0.00,,,0.00,WUHU216DAVISVP2,2013-01-07 08:56:00,
2013-01-07 03:57:00,39.1,28.7,30.25,West,266,1.0,6.0,66,0.00,,,0.00,WUHU216DAVISVP2,2013-01-07 08:57:00,
2013-01-07 03:58:00,38.9,29.0,30.25,West,267,2.0,4.0,67,0.00,,,0.00,WUHU216DAVISVP2,2013-01-07 08:58:00,
2013-01-07 03:59:00,38.6,28.7,30.25,WSW,258,3.0,4.0,67,0.00,,,0.00,WUHU216DAVISVP2,2013-01-07 08:59:00,
2013-01-07 04:00:00,37.9,28.7,30.25,WSW,258,4.0,4.0,69,0.00,,,0.00,WUHU216DAVISVP2,2013-01-07 09:00:00,
2013-01-07 04:01:00,37.0,28.2,30.25,West,267,3.0,4.0,70,0.00,,,0.00,WUHU216DAVISVP2,2013-01-07 09:01:00,
2013-01-07 04:02:00,36.3,28.2,30.25,West,262,2.0,4.0,72,0.00,,,0.00,WUHU216DAVISVP2,2013-01-07 09:02:00,
2013-01-07 04:03:00,35.7,28.0,30.25,WSW,256,2.0,4.0,73,0.00,,,0.00,WUHU216DAVISVP2,2013-01-07 09:03:00,
2013-01-07 04:04:00,34.9,27.8,30.25,WSW,244,0.0,4.0,75,0.00,,,0.00,WUHU216DAVISVP2,2013-01-07 09:04:00,
2013-01-07 04:05:00,34.8,28.0,30.25,WSW,244,0.0,4.0,76,0.00,,,0.00,WUHU216DAVISVP2,2013-01-07 09:05:00,
2013-01-07 04:06:00,34.5,27.8,30.26,SW,233,0.0,4.0,76,0.00,,,0.00,WUHU216DAVISVP2,2013-01-07 09:06:00,
2013-01-07 04:07:00,34.4,28.0,30.26,SW,233,0.0,4.0,77,0.00,,,0.00,WUHU216DAVISVP2,2013-01-07 09:07:00,
2013-01-07 04:08:00,34.2,27.8,30.26,SW,233,1.0,4.0,77,0.00,,,0.00,WUHU216DAVISVP2,2013-01-07 09:08:00,
2013-01-07 04:09:00,34.1,28.0,30.26,SW,234,0.0,4.0,78,0.00,,,0.00,WUHU216DAVISVP2,2013-01-07 09:09:00,
2013-01-07 04:10:00,34.0,27.9,30.26,SW,233,0.0,4.0,78,0.00,,,0.00,WUHU216DAVISVP2,2013-01-07 09:10:00,
2013-01-07 04:11:00,34.0,27.9,30.25,SW,233,1.0,4.0,78,0.00,,,0.00,WUHU216DAVISVP2,2013-01-07 09:11:00,
2013-01-07 04:12:00,33.9,27.8,30.25,WSW,258,1.0,4.0,78,0.00,,,0.00,WUHU216DAVISVP2,2013-01-07 09:12:00,
2013-01-07 04:13:00,33.8,27.7,30.25,West,262,1.0,4.0,78,0.00,,,0.00,WUHU216DAVISVP2,2013-01-07 09:13:00,
2013-01-07 04:14:00,33.7,27.6,30.25,West,260,1.0,4.0,78,0.00,,,0.00,WUHU216DAVISVP2,2013-01-07 09:14:00,
2013-01-07 04:15:00,33.5,27.7,30.25,West,260,1.0,4.0,79,0.00,,,0.00,WUHU216DAVISVP2,2013-01-07 09:15:00,
2013-01-07 04:16:00,33.4,27.6,30.25,West,270,3.0,4.0,79,0.00,,,0.00,WUHU216DAVISVP2,2013-01-07 09:16:00,
2013-01-07 04:17:00,33.2,27.7,30.25,WSW,253,2.0,4.0,80,0.00,,,0.00,WUHU216DAVISVP2,2013-01-07 09:17:00,
2013-01-07 04:18:00,33.1,27.6,30.25,WSW,253,2.0,4.0,80,0.00,,,0.00,WUHU216DAVISVP2,2013-01-07 09:18:00,
2013-01-07 04:19:00,33.1,27.6,30.25,West,262,2.0,4.0,80,0.00,,,0.00,WUHU216DAVISVP2,2013-01-07 09:19:00,
2013-01-07 04:20:00,32.9,27.4,30.25,West,262,1.0,4.0,80,0.00,,,0.00,WUHU216DAVISVP2,2013-01-07 09:20:00,
2013-01-07 04:21:00,32.9,27.7,30.25,WSW,254,1.0,3.0,81,0.00,,,0.00,WUHU216DAVISVP2,2013-01-07 09:21:00,
2013-01-07 04:22:00,33.0,27.8,30.25,WSW,254,0.0,3.0,81,0.00,,,0.00,WUHU216DAVISVP2,2013-01-07 09:22:00,
2013-01-07 04:23:00,33.1,27.9,30.26,WSW,254,0.0,3.0,81,0.00,,,0.00,WUHU216DAVISVP2,2013-01-07 09:23:00,
2013-01-07 04:24:00,33.2,27.7,30.26,WSW,245,1.0,3.0,80,0.00,,,0.00,WUHU216DAVISVP2,2013-01-07 09:24:00,
2013-01-07 04:25:00,33.3,27.8,30.26,WSW,246,0.0,3.0,80,0.00,,,0.00,WUHU216DAVISVP2,2013-01-07 09:25:00,
2013-01-07 04:26:00,33.5,28.0,30.26,West,264,1.0,3.0,80,0.00,,,0.00,WUHU216DAVISVP2,2013-01-07 09:26:00,
2013-01-07 04:27:00,33.7,27.9,30.26,West,266,1.0,3.0,79,0.00,,,0.00,WUHU216DAVISVP2,2013-01-07 09:27:00,
2013-01-07 04:28:00,33.9,28.1,30.26,West,262,1.0,3.0,79,0.00,,,0.00,WUHU216DAVISVP2,2013-01-07 09:28:00,
2013-01-07 04:29:00,34.1,28.3,30.26,West,260,2.0,3.0,79,0.00,,,0.00,WUHU216DAVISVP2,2013-01-07 09:29:00,
2013-01-07 04:30:00,34.4,28.3,30.25,WSW,258,2.0,3.0,78,0.00,,,0.00,WUHU216DAVISVP2,2013-01-07 09:30:00,
2013-01-07 04:31:00,34.7,28.3,30.25,West,271,2.0,3.0,77,0.00,,,0.00,WUHU216DAVISVP2,2013-01-07 09:31:00,
2013-01-07 04:32:00,34.9,28.1,30.25,West,264,2.0,3.0,76,0.00,,,0.00,WUHU216DAVISVP2,2013-01-07 09:32:00,
2013-01-07 04:33:00,35.1,28.3,30.26,West,274,2.0,3.0,76,0.00,,,0.00,WUHU216DAVISVP2,2013-01-07 09:33:00,
2013-01-07 04:34:00,35.3,28.2,30.26,West,281,1.0,3.0,75,0.00,,,0.00,WUHU216DAVISVP2,2013-01-07 09:34:00,
2013-01-07 04:35:00,35.6,28.5,30.26,West,280,1.0,3.0,75,0.00,,,0.00,WUHU216DAVISVP2,2013-01-07 09:35:00,
2013-01-07 04:36:00,35.9,28.5,30.26,West,267,1.0,3.0,74,0.00,,,0.00,WUHU216DAVISVP2,2013-01-07 09:36:00,
2013-01-07 04:37:00,36.1,28.3,30.26,West,280,1.0,3.0,73,0.00,,,0.00,WUHU216DAVISVP2,2013-01-07 09:37:00,
2013-01-07 04:38:00,36.3,28.5,30.27,West,277,2.0,3.0,73,0.00,,,0.00,WUHU216DAVISVP2,2013-01-07 09:38:00,
2013-01-07 04:39:00,36.5,28.3,30.27,West,280,1.0,3.0,72,0.00,,,0.00,WUHU216DAVISVP2,2013-01-07 09:39:00,
2013-01-07 04:40:00,36.7,28.5,30.27,WNW,290,2.0,3.0,72,0.00,,,0.00,WUHU216DAVISVP2,2013-01-07 09:40:00,
2013-01-07 04:41:00,36.8,28.3,30.27,WSW,254,1.0,3.0,71,0.00,,,0.00,WUHU216DAVISVP2,2013-01-07 09:41:00,
2013-01-07 04:42:00,36.8,28.3,30.27,West,276,1.0,3.0,71,0.00,,,0.00,WUHU216DAVISVP2,2013-01-07 09:42:00,
2013-01-07 04:43:00,36.9,28.4,30.27,West,281,2.0,3.0,71,0.00,,,0.00,WUHU216DAVISVP2,2013-01-07 09:43:00,
2013-01-07 04:44:00,36.9,28.4,30.27,West,263,2.0,3.0,71,0.00,,,0.00,WUHU216DAVISVP2,2013-01-07 09:44:00,
2013-01-07 04:45:00,36.9,28.4,30.27,WSW,252,3.0,3.0,71,0.00,,,0.00,WUHU216DAVISVP2,2013-01-07 09:45:00,
2013-01-07 04:46:00,36.5,28.1,30.27,West,263,2.0,4.0,71,0.00,,,0.00,WUHU216DAVISVP2,2013-01-07 09:46:00,
2013-01-07 04:47:00,35.8,27.7,30.27,WSW,250,2.0,4.0,72,0.00,,,0.00,WUHU216DAVISVP2,2013-01-07 09:47:00,
2013-01-07 04:48:00,35.1,27.7,30.27,WSW,249,2.0,4.0,74,0.00,,,0.00,WUHU216DAVISVP2,2013-01-07 09:48:00,
2013-01-07 04:49:00,34.4,27.3,30.27,WSW,249,1.0,4.0,75,0.00,,,0.00,WUHU216DAVISVP2,2013-01-07 09:49:00,
2013-01-07 04:50:00,33.8,27.1,30.27,WSW,252,0.0,4.0,76,0.00,,,0.00,WUHU216DAVISVP2,2013-01-07 09:50:00,
2013-01-07 04:52:00,33.2,27.4,30.28,West,260,0.0,4.0,79,0.00,,,0.00,WUHU216DAVISVP2,2013-01-07 09:52:00,
2013-01-07 04:53:00,33.1,27.3,30.28,WSW,242,2.0,4.0,79,0.00,,,0.00,WUHU216DAVISVP2,2013-01-07 09:53:00,
2013-01-07 04:54:00,33.0,27.2,30.28,WSW,249,1.0,4.0,79,0.00,,,0.00,WUHU216DAVISVP2,2013-01-07 09:54:00,
2013-01-07 04:55:00,33.0,27.5,30.28,SW,236,2.0,4.0,80,0.00,,,0.00,WUHU216DAVISVP2,2013-01-07 09:55:00,
2013-01-07 04:56:00,33.0,27.5,30.28,WSW,252,2.0,4.0,80,0.00,,,0.00,WUHU216DAVISVP2,2013-01-07 09:56:00,
2013-01-07 04:57:00,33.0,27.5,30.28,WSW,240,2.0,4.0,80,0.00,,,0.00,WUHU216DAVISVP2,2013-01-07 09:57:00,
2013-01-07 04:58:00,33.0,27.5,30.27,WSW,253,2.0,4.0,80,0.00,,,0.00,WUHU216DAVISVP2,2013-01-07 09:58:00,
2013-01-07 04:59:00,32.9,27.4,30.28,WSW,250,2.0,4.0,80,0.00,,,0.00,WUHU216DAVISVP2,2013-01-07 09:59:00,
2013-01-07 05:00:00,32.9,27.4,30.28,WSW,252,2.0,4.0,80,0.00,,,0.00,WUHU216DAVISVP2,2013-01-07 10:00:00,
2013-01-07 05:01:00,32.8,27.3,30.28,WSW,252,2.0,4.0,80,0.00,,,0.00,WUHU216DAVISVP2,2013-01-07 10:01:00,
2013-01-07 05:02:00,32.8,27.3,30.28,WSW,257,2.0,4.0,80,0.00,,,0.00,WUHU216DAVISVP2,2013-01-07 10:02:00,
2013-01-07 05:03:00,32.8,27.6,30.28,West,260,1.0,4.0,81,0.00,,,0.00,WUHU216DAVISVP2,2013-01-07 10:03:00,
2013-01-07 05:04:00,32.9,27.4,30.28,West,263,2.0,4.0,80,0.00,,,0.00,WUHU216DAVISVP2,2013-01-07 10:04:00,
2013-01-07 05:05:00,33.0,27.5,30.28,WSW,255,2.0,4.0,80,0.00,,,0.00,WUHU216DAVISVP2,2013-01-07 10:05:00,
2013-01-07 05:06:00,33.2,27.7,30.29,WSW,255,1.0,4.0,80,0.00,,,0.00,WUHU216DAVISVP2,2013-01-07 10:06:00,
2013-01-07 05:07:00,33.3,27.8,30.29,West,277,2.0,4.0,80,0.00,,,0.00,WUHU216DAVISVP2,2013-01-07 10:07:00,
2013-01-07 05:08:00,33.4,27.6,30.29,West,262,1.0,4.0,79,0.00,,,0.00,WUHU216DAVISVP2,2013-01-07 10:08:00,
2013-01-07 05:09:00,33.5,27.7,30.28,WNW,285,2.0,4.0,79,0.00,,,0.00,WUHU216DAVISVP2,2013-01-07 10:09:00,
2013-01-07 05:10:00,33.7,27.9,30.28,West,278,2.0,4.0,79,0.00,,,0.00,WUHU216DAVISVP2,2013-01-07 10:10:00,
2013-01-07 05:11:00,33.9,27.8,30.28,WNW,283,2.0,3.0,78,0.00,,,0.00,WUHU216DAVISVP2,2013-01-07 10:11:00,
2013-01-07 05:12:00,34.0,27.9,30.28,WNW,286,2.0,3.0,78,0.00,,,0.00,WUHU216DAVISVP2,2013-01-07 10:12:00,
2013-01-07 05:13:00,34.1,28.0,30.28,West,280,1.0,3.0,78,0.00,,,0.00,WUHU216DAVISVP2,2013-01-07 10:13:00,
2013-01-07 05:14:00,34.2,27.8,30.28,WNW,286,2.0,3.0,77,0.00,,,0.00,WUHU216DAVISVP2,2013-01-07 10:14:00,
2013-01-07 05:15:00,34.3,27.6,30.28,West,273,1.0,3.0,76,0.00,,,0.00,WUHU216DAVISVP2,2013-01-07 10:15:00,
2013-01-07 05:16:00,34.5,27.8,30.28,West,281,3.0,3.0,76,0.00,,,0.00,WUHU216DAVISVP2,2013-01-07 10:16:00,
2013-01-07 05:17:00,34.7,27.6,30.29,WNW,296,2.0,3.0,75,0.00,,,0.00,WUHU216DAVISVP2,2013-01-07 10:17:00,
2013-01-07 05:19:00,35.0,27.6,30.29,West,273,2.0,3.0,74,0.00,,,0.00,WUHU216DAVISVP2,2013-01-07 10:19:00,
2013-01-07 05:20:00,35.0,27.6,30.29,WNW,284,2.0,3.0,74,0.00,,,0.00,WUHU216DAVISVP2,2013-01-07 10:20:00,
2013-01-07 05:21:00,35.2,27.8,30.29,WSW,257,3.0,4.0,74,0.00,,,0.00,WUHU216DAVISVP2,2013-01-07 10:21:00,
2013-01-07 05:22:00,35.3,27.9,30.29,West,277,2.0,4.0,74,0.00,,,0.00,WUHU216DAVISVP2,2013-01-07 10:22:00,
2013-01-07 05:23:00,35.5,27.8,30.29,WNW,286,0.0,4.0,73,0.00,,,0.00,WUHU216DAVISVP2,2013-01-07 10:23:00,
2013-01-07 05:24:00,35.5,27.8,30.29,WNW,288,1.0,4.0,73,0.00,,,0.00,WUHU216DAVISVP2,2013-01-07 10:24:00,
2013-01-07 05:25:00,35.6,27.9,30.29,WNW,297,1.0,4.0,73,0.00,,,0.00,WUHU216DAVISVP2,2013-01-07 10:25:00,
2013-01-07 05:27:00,35.7,27.6,30.29,NW,309,1.0,4.0,72,0.00,,,0.00,WUHU216DAVISVP2,2013-01-07 10:27:00,
2013-01-07 05:28:00,35.7,27.6,30.29,NW,309,1.0,4.0,72,0.00,,,0.00,WUHU216DAVISVP2,2013-01-07 10:28:00,
2013-01-07 05:29:00,35.7,27.6,30.29,WNW,298,1.0,4.0,72,0.00,,,0.00,WUHU216DAVISVP2,2013-01-07 10:29:00,
2013-01-07 05:30:00,35.7,27.6,30.29,NW,308,2.0,4.0,72,0.00,,,0.00,WUHU216DAVISVP2,2013-01-07 10:30:00,
2013-01-07 05:31:00,35.7,27.6,30.29,West,276,0.0,4.0,72,0.00,,,0.00,WUHU216DAVISVP2,2013-01-07 10:31:00,
2013-01-07 05:32:00,35.7,27.6,30.29,WNW,284,2.0,4.0,72,0.00,,,0.00,WUHU216DAVISVP2,2013-01-07 10:32:00,
2013-01-07 05:33:00,35.7,27.6,30.29,West,271,4.0,4.0,72,0.00,,,0.00,WUHU216DAVISVP2,2013-01-07 10:33:00,
2013-01-07 05:34:00,35.8,27.7,30.29,West,280,3.0,4.0,72,0.00,,,0.00,WUHU216DAVISVP2,2013-01-07 10:34:00,
2013-01-07 05:35:00,35.8,27.7,30.29,WNW,290,1.0,4.0,72,0.00,,,0.00,WUHU216DAVISVP2,2013-01-07 10:35:00,
2013-01-07 05:36:00,35.8,27.7,30.29,WNW,293,2.0,4.0,72,0.00,,,0.00,WUHU216DAVISVP2,2013-01-07 10:36:00,
2013-01-07 05:37:00,35.8,27.4,30.29,WSW,250,2.0,4.0,71,0.00,,,0.00,WUHU216DAVISVP2,2013-01-07 10:37:00,
2013-01-07 05:38:00,35.9,27.5,30.29,West,266,1.0,4.0,71,0.00,,,0.00,WUHU216DAVISVP2,2013-01-07 10:38:00,
2013-01-07 05:39:00,36.0,27.6,30.29,NW,309,2.0,4.0,71,0.00,,,0.00,WUHU216DAVISVP2,2013-01-07 10:39:00,
2013-01-07 05:40:00,36.1,27.7,30.29,North,349,1.0,4.0,71,0.00,,,0.00,WUHU216DAVISVP2,2013-01-07 10:40:00,
2013-01-07 05:41:00,36.1,27.7,30.29,NW,321,1.0,4.0,71,0.00,,,0.00,WUHU216DAVISVP2,2013-01-07 10:41:00,
2013-01-07 05:43:00,36.2,27.4,30.30,NNE,27,2.0,4.0,70,0.00,,,0.00,WUHU216DAVISVP2,2013-01-07 10:43:00,
2013-01-07 05:44:00,36.3,27.5,30.30,NNW,333,4.0,4.0,70,0.00,,,0.00,WUHU216DAVISVP2,2013-01-07 10:44:00,
2013-01-07 05:49:00,36.6,27.5,30.30,NNW,333,1.0,4.0,69,0.00,,,0.00,WUHU216DAVISVP2,2013-01-07 10:49:00,
2013-01-07 05:54:00,37.0,27.4,30.30,NNW,335,2.0,4.0,68,0.00,,,0.00,WUHU216DAVISVP2,2013-01-07 10:54:00,
2013-01-07 05:59:00,37.3,27.3,30.31,WNW,291,1.0,5.0,67,0.00,,,0.00,WUHU216DAVISVP2,2013-01-07 10:59:00,
2013-01-07 06:00:00,37.3,27.3,30.31,NW,315,2.0,4.0,67,0.00,,,0.00,WUHU216DAVISVP2,2013-01-07 11:00:00,
2013-01-07 06:04:00,37.1,27.6,30.31,NW,304,2.0,5.0,68,0.00,,,0.00,WUHU216DAVISVP2,2013-01-07 11:04:00,
2013-01-07 06:09:00,36.9,27.4,30.31,WNW,296,4.0,5.0,68,0.00,,,0.00,WUHU216DAVISVP2,2013-01-07 11:09:00,
2013-01-07 06:14:00,36.9,27.4,30.31,NNE,20,3.0,6.0,68,0.00,,,0.00,WUHU216DAVISVP2,2013-01-07 11:14:00,
2013-01-07 06:19:00,37.1,27.6,30.31,NNE,25,2.0,6.0,68,0.00,,,0.00,WUHU216DAVISVP2,2013-01-07 11:19:00,
2013-01-07 06:24:00,37.2,27.6,30.32,WNW,290,1.0,6.0,68,0.00,,,0.00,WUHU216DAVISVP2,2013-01-07 11:24:00,
2013-01-07 06:29:00,36.9,27.4,30.32,North,350,2.0,6.0,68,0.00,,,0.00,WUHU216DAVISVP2,2013-01-07 11:29:00,
2013-01-07 06:30:00,36.9,27.3,30.32,NW,315,2.0,6.0,68,0.00,,,0.00,WUHU216DAVISVP2,2013-01-07 11:30:00,
2013-01-07 06:34:00,36.8,27.3,30.32,WSW,258,0.0,5.0,68,0.00,,,0.00,WUHU216DAVISVP2,2013-01-07 11:34:00,
2013-01-07 06:39:00,36.4,27.3,30.32,East,79,0.0,5.0,69,0.00,,,0.00,WUHU216DAVISVP2,2013-01-07 11:39:00,
2013-01-07 06:44:00,36.1,27.3,30.33,ENE,78,3.0,4.0,70,0.00,,,0.00,WUHU216DAVISVP2,2013-01-07 11:44:00,
2013-01-07 06:50:00,36.3,27.1,30.33,NE,47,4.0,6.0,69,0.00,,,0.00,WUHU216DAVISVP2,2013-01-07 11:50:00,
2013-01-07 06:55:00,36.5,27.3,30.33,NNW,335,4.0,6.0,69,0.00,,,0.00,WUHU216DAVISVP2,2013-01-07 11:55:00,
2013-01-07 07:00:00,36.0,27.2,30.32,North,360,4.0,6.0,70,0.00,,,0.00,WUHU216DAVISVP2,2013-01-07 12:00:00,
2013-01-07 07:05:00,35.8,27.0,30.34,NNE,15,3.0,6.0,70,0.00,,,0.00,WUHU216DAVISVP2,2013-01-07 12:05:00,
2013-01-07 07:10:00,36.1,27.3,30.34,NNW,333,3.0,8.0,70,0.00,,,0.00,WUHU216DAVISVP2,2013-01-07 12:10:00,
2013-01-07 07:15:00,36.1,27.3,30.34,NW,324,2.0,8.0,70,0.00,,,0.00,WUHU216DAVISVP2,2013-01-07 12:15:00,
2013-01-07 07:20:00,36.0,27.2,30.34,NW,323,3.0,8.0,70,0.00,,,0.00,WUHU216DAVISVP2,2013-01-07 12:20:00,
2013-01-07 07:25:00,36.0,27.2,30.35,NNE,22,2.0,8.0,70,0.00,,,0.00,WUHU216DAVISVP2,2013-01-07 12:25:00,
2013-01-07 07:30:00,36.1,26.9,30.35,WNW,302,2.0,7.0,69,0.00,,,0.00,WUHU216DAVISVP2,2013-01-07 12:30:00,
2013-01-07 07:35:00,36.0,27.2,30.36,NW,326,3.0,6.0,70,0.00,,,0.00,WUHU216DAVISVP2,2013-01-07 12:35:00,
2013-01-07 07:40:00,35.6,26.8,30.36,West,277,1.0,5.0,70,0.00,,,0.00,WUHU216DAVISVP2,2013-01-07 12:40:00,
2013-01-07 07:45:00,35.5,27.0,30.36,WNW,285,3.0,5.0,71,0.00,,,0.00,WUHU216DAVISVP2,2013-01-07 12:45:00,
2013-01-07 07:50:00,35.3,26.9,30.38,SE,124,0.0,5.0,71,0.00,,,0.00,WUHU216DAVISVP2,2013-01-07 12:50:00,
2013-01-07 07:55:00,35.2,26.8,30.38,NW,319,2.0,5.0,71,0.00,,,0.00,WUHU216DAVISVP2,2013-01-07 12:55:00,
2013-01-07 08:00:00,35.4,27.0,30.38,NNW,347,3.0,5.0,71,0.00,,,0.00,WUHU216DAVISVP2,2013-01-07 13:00:00,
2013-01-07 08:05:00,35.5,27.1,30.38,NNW,330,1.0,5.0,71,0.00,,,0.00,WUHU216DAVISVP2,2013-01-07 13:05:00,
2013-01-07 08:10:00,35.5,27.1,30.38,NW,308,0.0,4.0,71,0.00,,,0.00,WUHU216DAVISVP2,2013-01-07 13:10:00,
2013-01-07 08:15:00,35.9,27.1,30.38,NNE,18,2.0,4.0,70,0.00,,,0.00,WUHU216DAVISVP2,2013-01-07 13:15:00,
2013-01-07 08:20:00,36.1,27.3,30.38,NNW,332,1.0,5.0,70,0.00,,,0.00,WUHU216DAVISVP2,2013-01-07 13:20:00,
2013-01-07 08:25:00,36.4,27.3,30.39,North,360,1.0,7.0,69,0.00,,,0.00,WUHU216DAVISVP2,2013-01-07 13:25:00,
2013-01-07 08:30:00,36.8,27.3,30.39,NE,39,5.0,7.0,68,0.00,,,0.00,WUHU216DAVISVP2,2013-01-07 13:30:00,
2013-01-07 08:35:00,37.1,27.2,30.39,ENE,65,3.0,8.0,67,0.00,,,0.00,WUHU216DAVISVP2,2013-01-07 13:35:00,
2013-01-07 08:40:00,37.4,27.5,30.39,NNW,339,4.0,10.0,67,0.00,,,0.00,WUHU216DAVISVP2,2013-01-07 13:40:00,
2013-01-07 08:45:00,37.6,27.3,30.40,NNW,336,2.0,10.0,66,0.00,,,0.00,WUHU216DAVISVP2,2013-01-07 13:45:00,
2013-01-07 08:50:00,37.7,27.4,30.40,NNE,13,6.0,9.0,66,0.00,,,0.00,WUHU216DAVISVP2,2013-01-07 13:50:00,
2013-01-07 08:55:00,37.9,27.6,30.41,NNW,336,3.0,9.0,66,0.00,,,0.00,WUHU216DAVISVP2,2013-01-07 13:55:00,
2013-01-07 09:00:00,38.0,27.4,30.41,NNE,18,4.0,10.0,65,0.00,,,0.00,WUHU216DAVISVP2,2013-01-07 14:00:00,
2013-01-07 09:05:00,38.1,27.4,30.41,NNW,336,4.0,10.0,65,0.00,,,0.00,WUHU216DAVISVP2,2013-01-07 14:05:00,
2013-01-07 09:10:00,38.3,27.6,30.42,North,9,4.0,10.0,65,0.00,,,0.00,WUHU216DAVISVP2,2013-01-07 14:10:00,
2013-01-07 09:15:00,38.5,27.8,30.41,West,269,4.0,10.0,65,0.00,,,0.00,WUHU216DAVISVP2,2013-01-07 14:15:00,
2013-01-07 09:20:00,38.6,27.5,30.42,North,350,2.0,9.0,64,0.00,,,0.00,WUHU216DAVISVP2,2013-01-07 14:20:00,
2013-01-07 09:25:00,38.9,27.8,30.43,NNE,25,3.0,8.0,64,0.00,,,0.00,WUHU216DAVISVP2,2013-01-07 14:25:00,
2013-01-07 09:30:00,39.1,27.6,30.43,NNW,345,6.0,9.0,63,0.00,,,0.00,WUHU216DAVISVP2,2013-01-07 14:30:00,
2013-01-07 09:35:00,39.0,27.5,30.43,NNE,30,3.0,10.0,63,0.00,,,0.00,WUHU216DAVISVP2,2013-01-07 14:35:00,
2013-01-07 09:40:00,39.2,27.7,30.44,WNW,301,6.0,10.0,63,0.00,,,0.00,WUHU216DAVISVP2,2013-01-07 14:40:00,
2013-01-07 09:45:00,39.3,27.4,30.43,NE,49,5.0,12.0,62,0.00,,,0.00,WUHU216DAVISVP2,2013-01-07 14:45:00,
2013-01-07 09:50:00,39.3,27.0,30.44,NW,325,4.0,12.0,61,0.00,,,0.00,WUHU216DAVISVP2,2013-01-07 14:50:00,
2013-01-07 09:55:00,39.7,27.8,30.44,NE,43,4.0,12.0,62,0.00,,,0.00,WUHU216DAVISVP2,2013-01-07 14:55:00,
2013-01-07 10:00:00,39.7,27.4,30.44,NNW,335,5.0,12.0,61,0.00,,,0.00,WUHU216DAVISVP2,2013-01-07 15:00:00,
2013-01-07 10:05:00,39.9,27.1,30.44,NNE,29,3.0,11.0,60,0.00,,,0.00,WUHU216DAVISVP2,2013-01-07 15:05:00,
2013-01-07 10:10:00,40.0,27.3,30.44,NE,43,8.0,12.0,60,0.00,,,0.00,WUHU216DAVISVP2,2013-01-07 15:10:00,
2013-01-07 10:15:00,40.2,27.5,30.44,NNE,25,5.0,12.0,60,0.00,,,0.00,WUHU216DAVISVP2,2013-01-07 15:15:00,
2013-01-07 10:20:00,40.4,27.3,30.44,NNE,16,6.0,11.0,59,0.00,,,0.00,WUHU216DAVISVP2,2013-01-07 15:20:00,
2013-01-07 10:25:00,40.6,27.4,30.44,WNW,301,2.0,11.0,59,0.00,,,0.00,WUHU216DAVISVP2,2013-01-07 15:25:00,
2013-01-07 10:30:00,40.9,27.3,30.44,North,11,4.0,10.0,58,0.00,,,0.00,WUHU216DAVISVP2,2013-01-07 15:30:00,
2013-01-07 10:35:00,41.2,27.6,30.44,NE,43,7.0,8.0,58,0.00,,,0.00,WUHU216DAVISVP2,2013-01-07 15:35:00,
2013-01-07 10:40:00,41.2,27.6,30.44,NNE,23,7.0,14.0,58,0.00,,,0.00,WUHU216DAVISVP2,2013-01-07 15:40:00,
2013-01-07 10:45:00,41.3,27.7,30.44,NE,48,6.0,14.0,58,0.00,,,0.00,WUHU216DAVISVP2,2013-01-07 15:45:00,
2013-01-07 10:50:00,41.5,27.4,30.44,NE,37,6.0,13.0,57,0.00,,,0.00,WUHU216DAVISVP2,2013-01-07 15:50:00,
2013-01-07 10:55:00,41.7,27.6,30.44,North,9,2.0,13.0,57,0.00,,,0.00,WUHU216DAVISVP2,2013-01-07 15:55:00,
2013-01-07 11:00:00,42.1,28.0,30.43,NW,322,4.0,11.0,57,0.00,,,0.00,WUHU216DAVISVP2,2013-01-07 16:00:00,
2013-01-07 11:05:00,42.2,27.7,30.44,NNE,23,6.0,10.0,56,0.00,,,0.00,WUHU216DAVISVP2,2013-01-07 16:05:00,
2013-01-07 11:10:00,42.2,27.7,30.43,NNE,30,7.0,10.0,56,0.00,,,0.00,WUHU216DAVISVP2,2013-01-07 16:10:00,
2013-01-07 11:15:00,42.3,27.3,30.44,NE,49,6.0,9.0,55,0.00,,,0.00,WUHU216DAVISVP2,2013-01-07 16:15:00,
2013-01-07 11:20:00,42.5,27.5,30.43,NE,43,3.0,9.0,55,0.00,,,0.00,WUHU216DAVISVP2,2013-01-07 16:20:00,
2013-01-07 11:25:00,42.6,28.0,30.43,NNW,342,2.0,9.0,56,0.00,,,0.00,WUHU216DAVISVP2,2013-01-07 16:25:00,
2013-01-07 11:30:00,42.9,28.3,30.43,NE,53,0.0,9.0,56,0.00,,,0.00,WUHU216DAVISVP2,2013-01-07 16:30:00,
2013-01-07 11:35:00,43.2,27.7,30.43,North,354,4.0,8.0,54,0.00,,,0.00,WUHU216DAVISVP2,2013-01-07 16:35:00,
2013-01-07 11:40:00,43.2,27.7,30.43,North,5,1.0,8.0,54,0.00,,,0.00,WUHU216DAVISVP2,2013-01-07 16:40:00,
2013-01-07 11:45:00,43.4,27.9,30.42,NE,43,5.0,10.0,54,0.00,,,0.00,WUHU216DAVISVP2,2013-01-07 16:45:00,
2013-01-07 11:50:00,43.4,27.9,30.42,NNE,27,2.0,10.0,54,0.00,,,0.00,WUHU216DAVISVP2,2013-01-07 16:50:00,
2013-01-07 11:55:00,43.6,28.1,30.42,NNE,22,1.0,9.0,54,0.00,,,0.00,WUHU216DAVISVP2,2013-01-07 16:55:00,
2013-01-07 12:00:00,44.0,28.0,30.42,NNW,336,3.0,9.0,53,0.00,,,0.00,WUHU216DAVISVP2,2013-01-07 17:00:00,
2013-01-07 12:05:00,44.3,27.8,30.41,NNW,340,1.0,8.0,52,0.00,,,0.00,WUHU216DAVISVP2,2013-01-07 17:05:00,
2013-01-07 12:10:00,44.4,28.3,30.41,NE,39,6.0,6.0,53,0.00,,,0.00,WUHU216DAVISVP2,2013-01-07 17:10:00,
2013-01-07 12:15:00,44.5,27.9,30.41,NE,56,3.0,8.0,52,0.00,,,0.00,WUHU216DAVISVP2,2013-01-07 17:15:00,
2013-01-07 12:20:00,44.6,28.5,30.41,West,274,2.0,8.0,53,0.00,,,0.00,WUHU216DAVISVP2,2013-01-07 17:20:00,
2013-01-07 12:25:00,44.8,28.2,30.41,NE,56,7.0,8.0,52,0.00,,,0.00,WUHU216DAVISVP2,2013-01-07 17:25:00,
2013-01-07 12:30:00,44.8,28.2,30.41,NNE,33,3.0,8.0,52,0.00,,,0.00,WUHU216DAVISVP2,2013-01-07 17:30:00,
2013-01-07 12:35:00,44.7,28.6,30.40,ESE,107,1.0,8.0,53,0.00,,,0.00,WUHU216DAVISVP2,2013-01-07 17:35:00,
2013-01-07 12:40:00,44.9,28.3,30.40,West,270,0.0,8.0,52,0.00,,,0.00,WUHU216DAVISVP2,2013-01-07 17:40:00,
2013-01-07 12:45:00,45.1,28.5,30.40,NNE,22,3.0,8.0,52,0.00,,,0.00,WUHU216DAVISVP2,2013-01-07 17:45:00,
2013-01-07 12:50:00,45.1,28.5,30.39,NE,53,6.0,6.0,52,0.00,,,0.00,WUHU216DAVISVP2,2013-01-07 17:50:00,
2013-01-07 12:55:00,45.2,28.6,30.39,ENE,67,2.0,8.0,52,0.00,,,0.00,WUHU216DAVISVP2,2013-01-07 17:55:00,
2013-01-07 13:00:00,45.9,28.8,30.39,East,79,3.0,8.0,51,0.00,,,0.00,WUHU216DAVISVP2,2013-01-07 18:00:00,
2013-01-07 13:05:00,45.7,29.1,30.39,ENE,58,5.0,9.0,52,0.00,,,0.00,WUHU216DAVISVP2,2013-01-07 18:05:00,
2013-01-07 13:10:00,46.0,29.3,30.39,SE,127,3.0,9.0,52,0.00,,,0.00,WUHU216DAVISVP2,2013-01-07 18:10:00,
2013-01-07 13:15:00,46.6,29.4,30.38,SE,139,0.0,8.0,51,0.00,,,0.00,WUHU216DAVISVP2,2013-01-07 18:15:00,
2013-01-07 13:20:00,47.1,29.9,30.38,ENE,61,2.0,8.0,51,0.00,,,0.00,WUHU216DAVISVP2,2013-01-07 18:20:00,
2013-01-07 13:25:00,47.3,29.0,30.38,East,81,2.0,5.0,49,0.00,,,0.00,WUHU216DAVISVP2,2013-01-07 18:25:00,
2013-01-07 13:30:00,47.0,29.8,30.38,SSE,159,2.0,4.0,51,0.00,,,0.00,WUHU216DAVISVP2,2013-01-07 18:30:00,
2013-01-07 13:35:00,47.3,29.6,30.39,ENE,67,7.0,9.0,50,0.00,,,0.00,WUHU216DAVISVP2,2013-01-07 18:35:00,
2013-01-07 13:40:00,47.0,29.3,30.38,ENE,63,3.0,9.0,50,0.00,,,0.00,WUHU216DAVISVP2,2013-01-07 18:40:00,
2013-01-07 13:45:00,47.3,29.6,30.38,SSE,159,0.0,9.0,50,0.00,,,0.00,WUHU216DAVISVP2,2013-01-07 18:45:00,
2013-01-07 13:50:00,47.8,29.5,30.38,ESE,120,1.0,8.0,49,0.00,,,0.00,WUHU216DAVISVP2,2013-01-07 18:50:00,
2013-01-07 13:55:00,48.0,29.7,30.38,East,97,2.0,7.0,49,0.00,,,0.00,WUHU216DAVISVP2,2013-01-07 18:55:00,
2013-01-07 14:00:00,48.1,29.3,30.38,WSW,250,0.0,5.0,48,0.00,,,0.00,WUHU216DAVISVP2,2013-01-07 19:00:00,
2013-01-07 14:05:00,48.0,29.2,30.38,SW,217,0.0,5.0,48,0.00,,,0.00,WUHU216DAVISVP2,2013-01-07 19:05:00,
2013-01-07 14:10:00,48.1,29.8,30.38,WNW,291,2.0,5.0,49,0.00,,,0.00,WUHU216DAVISVP2,2013-01-07 19:10:00,
2013-01-07 14:15:00,48.2,29.4,30.38,SW,215,1.0,4.0,48,0.00,,,0.00,WUHU216DAVISVP2,2013-01-07 19:15:00,
2013-01-07 14:20:00,48.6,30.2,30.38,ENE,75,3.0,4.0,49,0.00,,,0.00,WUHU216DAVISVP2,2013-01-07 19:20:00,
2013-01-07 14:25:00,48.9,30.0,30.38,West,281,1.0,4.0,48,0.00,,,0.00,WUHU216DAVISVP2,2013-01-07 19:25:00,
2013-01-07 14:30:00,48.7,29.8,30.38,SE,131,1.0,4.0,48,0.00,,,0.00,WUHU216DAVISVP2,2013-01-07 19:30:00,
2013-01-07 14:35:00,49.0,30.1,30.38,SW,221,0.0,3.0,48,0.00,,,0.00,WUHU216DAVISVP2,2013-01-07 19:35:00,
2013-01-07 14:40:00,49.4,29.9,30.38,SSW,201,0.0,3.0,47,0.00,,,0.00,WUHU216DAVISVP2,2013-01-07 19:40:00,
2013-01-07 14:45:00,49.5,29.5,30.38,SSW,213,1.0,4.0,46,0.00,,,0.00,WUHU216DAVISVP2,2013-01-07 19:45:00,
2013-01-07 14:50:00,49.4,29.4,30.38,WNW,288,0.0,4.0,46,0.00,,,0.00,WUHU216DAVISVP2,2013-01-07 19:50:00,
2013-01-07 14:55:00,49.2,29.2,30.38,SE,131,1.0,4.0,46,0.00,,,0.00,WUHU216DAVISVP2,2013-01-07 19:55:00,
2013-01-07 15:00:00,48.9,29.0,30.38,East,86,0.0,5.0,46,0.00,,,0.00,WUHU216DAVISVP2,2013-01-07 20:00:00,
2013-01-07 15:05:00,48.6,28.6,30.38,NNE,29,0.0,5.0,46,0.00,,,0.00,WUHU216DAVISVP2,2013-01-07 20:05:00,
2013-01-07 15:10:00,48.7,29.3,30.38,ENE,69,2.0,4.0,47,0.00,,,0.00,WUHU216DAVISVP2,2013-01-07 20:10:00,
2013-01-07 15:15:00,49.5,30.1,30.38,SW,226,1.0,4.0,47,0.00,,,0.00,WUHU216DAVISVP2,2013-01-07 20:15:00,
2013-01-07 15:19:00,50.0,29.9,30.38,SW,224,0.0,4.0,46,0.00,,,0.00,WUHU216DAVISVP2,2013-01-07 20:19:00,
2013-01-07 15:24:00,50.0,29.4,30.39,ENE,77,0.0,3.0,45,0.00,,,0.00,WUHU216DAVISVP2,2013-01-07 20:24:00,
2013-01-07 15:29:00,49.7,29.2,30.39,ENE,69,3.0,3.0,45,0.00,,,0.00,WUHU216DAVISVP2,2013-01-07 20:29:00,
2013-01-07 15:30:00,49.7,29.2,30.39,ENE,68,1.0,4.0,45,0.00,,,0.00,WUHU216DAVISVP2,2013-01-07 20:30:00,
2013-01-07 15:34:00,49.5,29.5,30.39,ENE,67,2.0,4.0,46,0.00,,,0.00,WUHU216DAVISVP2,2013-01-07 20:34:00,
2013-01-07 15:39:00,49.4,29.4,30.39,SE,137,1.0,4.0,46,0.00,,,0.00,WUHU216DAVISVP2,2013-01-07 20:39:00,
2013-01-07 15:44:00,49.9,29.3,30.39,SSW,208,4.0,5.0,45,0.00,,,0.00,WUHU216DAVISVP2,2013-01-07 20:44:00,
2013-01-07 15:49:00,50.2,29.7,30.39,SW,219,1.0,5.0,45,0.00,,,0.00,WUHU216DAVISVP2,2013-01-07 20:49:00,
2013-01-07 15:54:00,50.6,29.9,30.39,SSW,205,1.0,5.0,45,0.00,,,0.00,WUHU216DAVISVP2,2013-01-07 20:54:00,
2013-01-07 15:59:00,50.5,29.9,30.40,SW,226,1.0,5.0,45,0.00,,,0.00,WUHU216DAVISVP2,2013-01-07 20:59:00,
2013-01-07 16:00:00,50.5,29.9,30.39,SW,225,1.0,5.0,45,0.00,,,0.00,WUHU216DAVISVP2,2013-01-07 21:00:00,
2013-01-07 16:04:00,50.7,30.0,30.40,WNW,283,1.0,5.0,45,0.00,,,0.00,WUHU216DAVISVP2,2013-01-07 21:04:00,
2013-01-07 16:09:00,50.9,30.2,30.40,SW,215,0.0,4.0,45,0.00,,,0.00,WUHU216DAVISVP2,2013-01-07 21:09:00,
2013-01-07 16:14:00,51.5,30.7,30.40,SSW,201,0.0,3.0,45,0.00,,,0.00,WUHU216DAVISVP2,2013-01-07 21:14:00,
2013-01-07 16:19:00,51.2,29.9,30.40,East,94,0.0,3.0,44,0.00,,,0.00,WUHU216DAVISVP2,2013-01-07 21:19:00,
2013-01-07 16:24:00,51.5,30.7,30.40,SW,221,0.0,3.0,45,0.00,,,0.00,WUHU216DAVISVP2,2013-01-07 21:24:00,
2013-01-07 16:29:00,51.5,30.2,30.40,WSW,252,0.0,3.0,44,0.00,,,0.00,WUHU216DAVISVP2,2013-01-07 21:29:00,
2013-01-07 16:30:00,51.5,30.3,30.40,SW,225,0.0,4.0,44,0.00,,,0.00,WUHU216DAVISVP2,2013-01-07 21:30:00,
2013-01-07 16:34:00,51.2,30.5,30.40,SSW,197,0.0,3.0,45,0.00,,,0.00,WUHU216DAVISVP2,2013-01-07 21:34:00,
2013-01-07 16:39:00,51.3,30.6,30.40,SSE,165,0.0,3.0,45,0.00,,,0.00,WUHU216DAVISVP2,2013-01-07 21:39:00,
2013-01-07 16:44:00,51.3,30.6,30.40,ENE,73,0.0,3.0,45,0.00,,,0.00,WUHU216DAVISVP2,2013-01-07 21:44:00,
2013-01-07 16:49:00,51.5,30.7,30.40,SSE,148,0.0,1.0,45,0.00,,,0.00,WUHU216DAVISVP2,2013-01-07 21:49:00,
2013-01-07 16:54:00,51.3,30.6,30.40,SSE,148,0.0,1.0,45,0.00,,,0.00,WUHU216DAVISVP2,2013-01-07 21:54:00,
2013-01-07 16:59:00,51.2,30.6,30.40,SSE,148,0.0,1.0,45,0.00,,,0.00,WUHU216DAVISVP2,2013-01-07 21:59:00,
2013-01-07 17:00:00,51.2,30.6,30.40,South,180,0.0,1.0,45,0.00,,,0.00,WUHU216DAVISVP2,2013-01-07 22:00:00,
2013-01-07 17:04:00,50.6,30.6,30.40,SSE,149,0.0,1.0,46,0.00,,,0.00,WUHU216DAVISVP2,2013-01-07 22:04:00,
2013-01-07 17:09:00,49.6,30.1,30.40,SE,124,0.0,1.0,47,0.00,,,0.00,WUHU216DAVISVP2,2013-01-07 22:09:00,
2013-01-07 17:14:00,48.6,29.7,30.40,SE,143,0.0,1.0,48,0.00,,,0.00,WUHU216DAVISVP2,2013-01-07 22:14:00,
2013-01-07 17:19:00,47.6,29.8,30.40,SE,142,0.0,1.0,50,0.00,,,0.00,WUHU216DAVISVP2,2013-01-07 22:19:00,
2013-01-07 17:24:00,46.7,30.0,30.40,SE,143,0.0,1.0,52,0.00,,,0.00,WUHU216DAVISVP2,2013-01-07 22:24:00,
2013-01-07 17:29:00,45.9,30.2,30.41,SE,142,0.0,1.0,54,0.00,,,0.00,WUHU216DAVISVP2,2013-01-07 22:29:00,
2013-01-07 17:30:00,45.9,30.2,30.41,SE,135,0.0,1.0,54,0.00,,,0.00,WUHU216DAVISVP2,2013-01-07 22:30:00,
2013-01-07 17:34:00,45.3,30.1,30.40,SE,142,0.0,1.0,55,0.00,,,0.00,WUHU216DAVISVP2,2013-01-07 22:34:00,
2013-01-07 17:39:00,44.7,30.4,30.41,SE,143,0.0,1.0,57,0.00,,,0.00,WUHU216DAVISVP2,2013-01-07 22:39:00,
2013-01-07 17:44:00,44.2,30.0,30.40,SE,142,0.0,0.0,57,0.00,,,0.00,WUHU216DAVISVP2,2013-01-07 22:44:00,
2013-01-07 17:49:00,43.9,30.1,30.40,SE,142,0.0,0.0,58,0.00,,,0.00,WUHU216DAVISVP2,2013-01-07 22:49:00,
2013-01-07 17:54:00,43.5,30.1,30.41,SE,142,0.0,0.0,59,0.00,,,0.00,WUHU216DAVISVP2,2013-01-07 22:54:00,
2013-01-07 17:59:00,43.3,30.0,30.41,SE,142,0.0,0.0,59,0.00,,,0.00,WUHU216DAVISVP2,2013-01-07 22:59:00,
2013-01-07 18:00:00,43.3,29.9,30.41,North,0,0.0,0.0,59,0.00,,,0.00,WUHU216DAVISVP2,2013-01-07 23:00:00,
2013-01-07 18:04:00,43.1,30.2,30.41,SE,142,0.0,0.0,60,0.00,,,0.00,WUHU216DAVISVP2,2013-01-07 23:04:00,
2013-01-07 18:09:00,42.8,29.9,30.41,SE,142,0.0,0.0,60,0.00,,,0.00,WUHU216DAVISVP2,2013-01-07 23:09:00,
2013-01-07 18:14:00,42.4,30.0,30.41,SE,142,0.0,0.0,61,0.00,,,0.00,WUHU216DAVISVP2,2013-01-07 23:14:00,
2013-01-07 18:19:00,42.0,29.6,30.41,SE,142,0.0,0.0,61,0.00,,,0.00,WUHU216DAVISVP2,2013-01-07 23:19:00,
2013-01-07 18:24:00,41.6,29.6,30.41,SE,143,0.0,0.0,62,0.00,,,0.00,WUHU216DAVISVP2,2013-01-07 23:24:00,
2013-01-07 18:29:00,41.3,29.7,30.41,SE,142,0.0,0.0,63,0.00,,,0.00,WUHU216DAVISVP2,2013-01-07 23:29:00,
2013-01-07 18:30:00,41.3,29.6,30.41,North,0,0.0,0.0,63,0.00,,,0.00,WUHU216DAVISVP2,2013-01-07 23:30:00,
2013-01-07 18:34:00,41.2,29.9,30.41,SE,142,0.0,0.0,64,0.00,,,0.00,WUHU216DAVISVP2,2013-01-07 23:34:00,
2013-01-07 18:39:00,40.9,29.7,30.42,SE,142,0.0,0.0,64,0.00,,,0.00,WUHU216DAVISVP2,2013-01-07 23:39:00,
2013-01-07 18:44:00,40.8,29.6,30.42,SE,142,0.0,0.0,64,0.00,,,0.00,WUHU216DAVISVP2,2013-01-07 23:44:00,
2013-01-07 18:49:00,40.5,29.4,30.42,SE,142,0.0,0.0,64,0.00,,,0.00,WUHU216DAVISVP2,2013-01-07 23:49:00,
2013-01-07 18:54:00,40.1,29.4,30.42,SE,142,0.0,0.0,65,0.00,,,0.00,WUHU216DAVISVP2,2013-01-07 23:54:00,
2013-01-07 18:59:00,39.7,29.4,30.42,SE,142,0.0,0.0,66,0.00,,,0.00,WUHU216DAVISVP2,2013-01-07 23:59:00,
2013-01-07 19:00:00,39.7,29.3,30.42,North,0,0.0,0.0,66,0.00,,,0.00,WUHU216DAVISVP2,2013-01-08 00:00:00,
2013-01-07 19:04:00,39.3,29.3,30.42,SE,142,0.0,0.0,67,0.00,,,0.00,WUHU216DAVISVP2,2013-01-08 00:04:00,
2013-01-07 19:09:00,39.5,29.5,30.42,SE,142,0.0,0.0,67,0.00,,,0.00,WUHU216DAVISVP2,2013-01-08 00:09:00,
2013-01-07 19:14:00,39.7,29.7,30.42,SE,142,0.0,0.0,67,0.00,,,0.00,WUHU216DAVISVP2,2013-01-08 00:14:00,
2013-01-07 19:19:00,39.8,29.4,30.42,SE,144,0.0,0.0,66,0.00,,,0.00,WUHU216DAVISVP2,2013-01-08 00:19:00,
2013-01-07 19:24:00,39.4,29.4,30.43,SE,143,0.0,0.0,67,0.00,,,0.00,WUHU216DAVISVP2,2013-01-08 00:24:00,
2013-01-07 19:29:00,39.2,29.6,30.43,SE,142,0.0,0.0,68,0.00,,,0.00,WUHU216DAVISVP2,2013-01-08 00:29:00,
2013-01-07 19:30:00,39.1,29.4,30.43,North,0,0.0,0.0,68,0.00,,,0.00,WUHU216DAVISVP2,2013-01-08 00:30:00,
2013-01-07 19:34:00,39.2,29.6,30.43,SE,142,0.0,0.0,68,0.00,,,0.00,WUHU216DAVISVP2,2013-01-08 00:34:00,
2013-01-07 19:39:00,39.1,29.5,30.43,SE,142,0.0,0.0,68,0.00,,,0.00,WUHU216DAVISVP2,2013-01-08 00:39:00,
2013-01-07 19:44:00,38.6,29.0,30.43,SE,142,0.0,0.0,68,0.00,,,0.00,WUHU216DAVISVP2,2013-01-08 00:44:00,
2013-01-07 19:49:00,37.8,28.6,30.43,SE,143,0.0,0.0,69,0.00,,,0.00,WUHU216DAVISVP2,2013-01-08 00:49:00,
2013-01-07 19:54:00,37.4,28.6,30.43,SE,143,0.0,0.0,70,0.00,,,0.00,WUHU216DAVISVP2,2013-01-08 00:54:00,
2013-01-07 19:59:00,37.0,28.5,30.43,SE,143,0.0,1.0,71,0.00,,,0.00,WUHU216DAVISVP2,2013-01-08 00:59:00,
2013-01-07 20:00:00,37.0,28.5,30.43,SE,135,0.0,1.0,71,0.00,,,0.00,WUHU216DAVISVP2,2013-01-08 01:00:00,
2013-01-07 20:04:00,36.4,28.3,30.43,SE,143,0.0,1.0,72,0.00,,,0.00,WUHU216DAVISVP2,2013-01-08 01:04:00,
2013-01-07 20:06:00,36.2,28.4,30.43,SE,143,0.0,1.0,73,0.00,,,0.00,WUHU216DAVISVP2,2013-01-08 01:06:00,
2013-01-07 20:07:00,36.1,28.3,30.43,SE,143,0.0,1.0,73,0.00,,,0.00,WUHU216DAVISVP2,2013-01-08 01:07:00,
2013-01-07 20:08:00,36.1,28.7,30.43,SE,143,0.0,1.0,74,0.00,,,0.00,WUHU216DAVISVP2,2013-01-08 01:08:00,
2013-01-07 20:09:00,36.1,28.7,30.43,SE,144,0.0,1.0,74,0.00,,,0.00,WUHU216DAVISVP2,2013-01-08 01:09:00,
2013-01-07 20:10:00,36.1,28.6,30.43,SE,142,0.0,1.0,74,0.00,,,0.00,WUHU216DAVISVP2,2013-01-08 01:10:00,
2013-01-07 20:11:00,36.2,28.7,30.43,SE,144,0.0,1.0,74,0.00,,,0.00,WUHU216DAVISVP2,2013-01-08 01:11:00,
2013-01-07 20:12:00,36.3,28.8,30.43,SE,143,0.0,1.0,74,0.00,,,0.00,WUHU216DAVISVP2,2013-01-08 01:12:00,
2013-01-07 20:13:00,36.4,28.9,30.43,SE,143,0.0,1.0,74,0.00,,,0.00,WUHU216DAVISVP2,2013-01-08 01:13:00,
2013-01-07 20:14:00,36.4,28.6,30.43,SE,143,0.0,1.0,73,0.00,,,0.00,WUHU216DAVISVP2,2013-01-08 01:14:00,
2013-01-07 20:15:00,36.5,28.7,30.43,SE,143,0.0,1.0,73,0.00,,,0.00,WUHU216DAVISVP2,2013-01-08 01:15:00,
2013-01-07 20:16:00,36.6,28.8,30.43,SE,143,0.0,0.0,73,0.00,,,0.00,WUHU216DAVISVP2,2013-01-08 01:16:00,
2013-01-07 20:17:00,36.7,28.9,30.43,SE,143,0.0,0.0,73,0.00,,,0.00,WUHU216DAVISVP2,2013-01-08 01:17:00,
2013-01-07 20:18:00,36.8,29.0,30.43,SE,144,0.0,0.0,73,0.00,,,0.00,WUHU216DAVISVP2,2013-01-08 01:18:00,
2013-01-07 20:19:00,36.9,29.1,30.43,SE,143,0.0,0.0,73,0.00,,,0.00,WUHU216DAVISVP2,2013-01-08 01:19:00,
2013-01-07 20:20:00,36.9,28.7,30.43,SE,144,0.0,0.0,72,0.00,,,0.00,WUHU216DAVISVP2,2013-01-08 01:20:00,
2013-01-07 20:29:00,36.5,28.7,30.43,SE,144,0.0,0.0,73,0.00,,,0.00,WUHU216DAVISVP2,2013-01-08 01:29:00,
2013-01-07 20:30:00,36.5,28.7,30.43,North,0,0.0,0.0,73,0.00,,,0.00,WUHU216DAVISVP2,2013-01-08 01:30:00,
2013-01-07 20:35:00,36.1,28.3,30.43,SE,144,0.0,0.0,73,0.00,,,0.00,WUHU216DAVISVP2,2013-01-08 01:35:00,
2013-01-07 20:40:00,35.8,28.7,30.43,SE,143,0.0,0.0,75,0.00,,,0.00,WUHU216DAVISVP2,2013-01-08 01:40:00,
2013-01-07 20:45:00,36.4,29.0,30.43,SE,144,0.0,0.0,74,0.00,,,0.00,WUHU216DAVISVP2,2013-01-08 01:45:00,
2013-01-07 20:50:00,36.6,28.8,30.43,SE,144,0.0,0.0,73,0.00,,,0.00,WUHU216DAVISVP2,2013-01-08 01:50:00,
2013-01-07 20:55:00,37.1,29.3,30.43,SE,143,1.0,1.0,73,0.00,,,0.00,WUHU216DAVISVP2,2013-01-08 01:55:00,
2013-01-07 21:00:00,37.3,29.1,30.43,SE,143,0.0,1.0,72,0.00,,,0.00,WUHU216DAVISVP2,2013-01-08 02:00:00,
2013-01-07 21:05:00,37.2,29.1,30.43,SE,142,0.0,1.0,72,0.00,,,0.00,WUHU216DAVISVP2,2013-01-08 02:05:00,
2013-01-07 21:10:00,36.7,28.9,30.43,SE,144,0.0,1.0,73,0.00,,,0.00,WUHU216DAVISVP2,2013-01-08 02:10:00,
2013-01-07 21:15:00,35.9,28.1,30.43,SE,143,0.0,1.0,73,0.00,,,0.00,WUHU216DAVISVP2,2013-01-08 02:15:00,
2013-01-07 21:20:00,35.2,28.1,30.42,SE,142,0.0,0.0,75,0.00,,,0.00,WUHU216DAVISVP2,2013-01-08 02:20:00,
2013-01-07 21:25:00,34.8,28.0,30.42,SE,144,0.0,0.0,76,0.00,,,0.00,WUHU216DAVISVP2,2013-01-08 02:25:00,
2013-01-07 21:30:00,34.2,28.1,30.42,SE,143,0.0,0.0,78,0.00,,,0.00,WUHU216DAVISVP2,2013-01-08 02:30:00,
2013-01-07 21:35:00,33.9,28.4,30.42,SE,143,0.0,0.0,80,0.00,,,0.00,WUHU216DAVISVP2,2013-01-08 02:35:00,
2013-01-07 21:40:00,33.7,28.2,30.42,SE,143,0.0,0.0,80,0.00,,,0.00,WUHU216DAVISVP2,2013-01-08 02:40:00,
2013-01-07 21:45:00,33.4,27.9,30.42,SE,144,0.0,0.0,80,0.00,,,0.00,WUHU216DAVISVP2,2013-01-08 02:45:00,
2013-01-07 21:50:00,33.1,27.9,30.42,SE,144,0.0,0.0,81,0.00,,,0.00,WUHU216DAVISVP2,2013-01-08 02:50:00,
2013-01-07 21:55:00,32.5,27.3,30.42,SE,143,0.0,0.0,81,0.00,,,0.00,WUHU216DAVISVP2,2013-01-08 02:55:00,
2013-01-07 22:00:00,32.1,27.2,30.42,SE,143,0.0,0.0,82,0.00,,,0.00,WUHU216DAVISVP2,2013-01-08 03:00:00,
2013-01-07 22:05:00,31.9,27.3,30.42,SE,144,0.0,0.0,83,0.00,,,0.00,WUHU216DAVISVP2,2013-01-08 03:05:00,
2013-01-07 22:10:00,32.1,27.5,30.42,SE,143,0.0,0.0,83,0.00,,,0.00,WUHU216DAVISVP2,2013-01-08 03:10:00,
2013-01-07 22:15:00,32.5,27.9,30.42,SE,144,0.0,0.0,83,0.00,,,0.00,WUHU216DAVISVP2,2013-01-08 03:15:00,
2013-01-07 22:20:00,32.6,27.7,30.42,SE,144,0.0,0.0,82,0.00,,,0.00,WUHU216DAVISVP2,2013-01-08 03:20:00,
2013-01-07 22:25:00,32.4,27.5,30.42,SE,143,0.0,0.0,82,0.00,,,0.00,WUHU216DAVISVP2,2013-01-08 03:25:00,
2013-01-07 22:30:00,32.0,27.4,30.42,SE,143,0.0,0.0,83,0.00,,,0.00,WUHU216DAVISVP2,2013-01-08 03:30:00,
2013-01-07 22:35:00,32.0,27.4,30.42,SE,144,0.0,0.0,83,0.00,,,0.00,WUHU216DAVISVP2,2013-01-08 03:35:00,
2013-01-07 22:40:00,32.3,27.7,30.42,SE,142,0.0,0.0,83,0.00,,,0.00,WUHU216DAVISVP2,2013-01-08 03:40:00,
2013-01-07 22:45:00,32.4,27.8,30.41,SE,142,0.0,0.0,83,0.00,,,0.00,WUHU216DAVISVP2,2013-01-08 03:45:00,
2013-01-07 22:50:00,32.1,27.2,30.42,SE,142,0.0,0.0,82,0.00,,,0.00,WUHU216DAVISVP2,2013-01-08 03:50:00,
2013-01-07 22:55:00,31.6,27.0,30.41,SE,142,0.0,0.0,83,0.00,,,0.00,WUHU216DAVISVP2,2013-01-08 03:55:00,
2013-01-07 23:00:00,31.6,27.3,30.41,SE,142,0.0,0.0,84,0.00,,,0.00,WUHU216DAVISVP2,2013-01-08 04:00:00,
2013-01-07 23:05:00,31.4,27.1,30.41,SE,142,0.0,0.0,84,0.00,,,0.00,WUHU216DAVISVP2,2013-01-08 04:05:00,
2013-01-07 23:10:00,31.5,27.2,30.41,SE,142,0.0,0.0,84,0.00,,,0.00,WUHU216DAVISVP2,2013-01-08 04:10:00,
2013-01-07 23:15:00,31.1,26.8,30.41,SE,142,0.0,0.0,84,0.00,,,0.00,WUHU216DAVISVP2,2013-01-08 04:15:00,
2013-01-07 23:20:00,30.7,26.7,30.41,SE,142,0.0,0.0,85,0.00,,,0.00,WUHU216DAVISVP2,2013-01-08 04:20:00,
2013-01-07 23:25:00,30.7,26.7,30.41,SE,142,0.0,0.0,85,0.00,,,0.00,WUHU216DAVISVP2,2013-01-08 04:25:00,
2013-01-07 23:30:00,30.3,26.3,30.41,WSW,248,1.0,1.0,85,0.00,,,0.00,WUHU216DAVISVP2,2013-01-08 04:30:00,
2013-01-07 23:35:00,29.5,25.8,30.42,WSW,253,1.0,2.0,86,0.00,,,0.00,WUHU216DAVISVP2,2013-01-08 04:35:00,
2013-01-07 23:40:00,29.1,25.7,30.42,WSW,253,1.0,2.0,87,0.00,,,0.00,WUHU216DAVISVP2,2013-01-08 04:40:00,
2013-01-07 23:45:00,28.6,25.2,30.42,WSW,251,0.0,2.0,87,0.00,,,0.00,WUHU216DAVISVP2,2013-01-08 04:45:00,
2013-01-07 23:50:00,28.3,25.2,30.42,WSW,252,0.0,2.0,88,0.00,,,0.00,WUHU216DAVISVP2,2013-01-08 04:50:00,
2013-01-07 23:55:00,28.1,25.0,30.42,WSW,252,0.0,1.0,88,0.00,,,0.00,WUHU216DAVISVP2,2013-01-08 04:55:00,